DW4707 Campi Bisenzio - Firenze IT current weather conditions

sailwx.info

Last reported at 2014-Oct-19 14:33 UTC.
Time now 2014-Oct-31 17:53 UTC

Location: N 43°50' E 011°08'.
View on Google Maps.

See reports from other nearby stations

  
Tides and Currents Weather Stations Pressure Air Temp Water Temp Dewpoint Dewpoint Depression Visibility Wind Speed Wind Dir Waves Ship Positions
date/time (UTC)wind fromknots sea level pressurealtimeterstation pressurevisibilityair tempwater tempwave heightnotes
2014-Oct-31 16:47 292 16.1
2014-Oct-31 16:37 028 16.7
2014-Oct-31 16:27 022 16.7
2014-Oct-31 16:17 338 17.2
2014-Oct-31 16:07 112 17.8
2014-Oct-31 15:57 044 18.3
2014-Oct-31 15:47 022 0 gusting 0 18.3
2014-Oct-31 15:37 022 0 gusting 0 18.3
2014-Oct-31 15:27 045 1 gusting 2 18.9
2014-Oct-31 15:17 18.9
2014-Oct-31 15:07 068 19.4
2014-Oct-31 14:57 034 0 gusting 1 19.4
2014-Oct-31 14:47 338 0 gusting 1 19.4
2014-Oct-31 14:37 090 19.4
2014-Oct-31 14:27 081 19.4
2014-Oct-31 14:17 158 19.4
2014-Oct-31 14:07 338 0 gusting 0 19.4
2014-Oct-31 13:57 006 1 gusting 2 19.4
2014-Oct-31 13:47 135 18.3
2014-Oct-31 13:37 17.8
2014-Oct-31 13:27 022 17.8
2014-Oct-31 13:17 022 17.8
2014-Oct-31 13:07 022 17.8
2014-Oct-31 12:57 022 17.8
2014-Oct-31 12:47 022 17.8
2014-Oct-31 12:37 022 17.2
2014-Oct-31 12:27 022 17.2
2014-Oct-31 12:17 17.2
2014-Oct-31 12:07 022 17.2
2014-Oct-31 11:57 122 16.7
2014-Oct-31 11:47 021 16.7
2014-Oct-31 11:37 047 16.1
2014-Oct-31 11:27 068 16.1
2014-Oct-31 11:17 16.1
2014-Oct-31 11:07 315 16.7
2014-Oct-31 10:57 180 16.1
2014-Oct-31 10:47 022 15.6
2014-Oct-31 10:37 045 15.0
2014-Oct-31 10:27 15.0
2014-Oct-31 10:17 090 14.4
2014-Oct-31 10:07 022 0 gusting 0 13.9
2014-Oct-31 09:57 045 12.8
2014-Oct-31 09:47 022 12.8
2014-Oct-31 09:37 180 12.2
2014-Oct-31 09:27 089 11.7
2014-Oct-31 09:07 158 11.7
2014-Oct-31 08:57 033 11.1
2014-Oct-31 08:47 022 11.1
2014-Oct-31 08:37 022 11.7
2014-Oct-31 08:27 142 12.2
2014-Oct-31 08:17 022 11.7
2014-Oct-31 08:07 022 11.1
2014-Oct-31 07:57 246 10.0
2014-Oct-31 07:47 225 8.3
2014-Oct-31 07:37 090 7.2
2014-Oct-31 07:27 180 6.7
2014-Oct-31 07:17 6.7
2014-Oct-31 07:07 158 6.1
2014-Oct-31 06:57 112 5.6
2014-Oct-31 06:47 068 5.6
2014-Oct-31 06:37 180 5.6
2014-Oct-31 06:27 193 5.6
2014-Oct-31 06:17 045 5.0
2014-Oct-31 06:07 180 5.0
2014-Oct-31 05:57 180 5.0
2014-Oct-31 05:47 158 5.6
2014-Oct-31 05:37 180 5.6
2014-Oct-31 05:27 180 5.6
2014-Oct-31 05:17 180 5.6
2014-Oct-31 05:07 158 5.6
2014-Oct-31 04:57 180 5.6
2014-Oct-31 04:47 180 5.6
2014-Oct-31 04:37 180 5.6
2014-Oct-31 04:27 194 5.6
2014-Oct-31 04:17 180 5.6
2014-Oct-31 04:07 180 5.6
2014-Oct-31 03:57 202 6.1
2014-Oct-31 03:47 158 6.1
2014-Oct-31 03:27 214 6.1
2014-Oct-31 03:17 225 6.1
2014-Oct-31 03:07 180 6.1
2014-Oct-31 02:57 6.1
2014-Oct-31 02:47 180 6.7
2014-Oct-31 02:37 158 6.7
2014-Oct-31 02:27 183 6.7
2014-Oct-31 02:17 164 6.7
2014-Oct-31 02:07 6.7
2014-Oct-31 01:46 202 6.7
2014-Oct-31 01:36 202 6.7
2014-Oct-31 01:27 202 7.2
2014-Oct-31 01:17 202 7.2
2014-Oct-31 01:07 222 7.2
2014-Oct-31 00:56 225 7.2
2014-Oct-31 00:46 270 7.2
2014-Oct-31 00:36 180 7.8
2014-Oct-31 00:26 158 7.8
2014-Oct-31 00:16 135 7.8
2014-Oct-31 00:08 248 7.8
2014-Oct-30 23:57 170 7.8
2014-Oct-30 23:56 170 7.8
2014-Oct-30 23:46 158 11.7
2014-Oct-30 23:36 158 11.7
2014-Oct-30 23:26 158 11.7
2014-Oct-30 23:16 158 11.7
2014-Oct-30 23:06 158 11.7
2014-Oct-30 22:56 158 11.7
2014-Oct-30 22:46 158 11.7
2014-Oct-30 22:37 158 11.7
2014-Oct-30 22:26 158 11.7
2014-Oct-30 22:16 158 11.7
2014-Oct-30 22:06 158 11.7
2014-Oct-30 21:56 158 11.7
2014-Oct-30 21:46 158 11.7
2014-Oct-30 21:36 158 11.7
2014-Oct-30 21:26 158 11.7
2014-Oct-30 21:16 158 11.7
2014-Oct-30 21:06 158 11.7
2014-Oct-30 20:56 158 11.7
2014-Oct-30 20:46 158 11.7
2014-Oct-30 20:36 158 11.7
2014-Oct-30 20:26 158 11.7
2014-Oct-30 20:16 158 11.7
2014-Oct-30 20:06 158 11.7
2014-Oct-30 19:56 158 11.7
2014-Oct-30 19:46 158 11.7
2014-Oct-30 19:36 158 11.7
2014-Oct-30 19:26 158 11.7
2014-Oct-30 19:16 046 11.7
2014-Oct-30 19:06 196 12.2
2014-Oct-30 18:56 202 12.2
2014-Oct-30 18:47 201 12.8
2014-Oct-30 18:36 044 13.3
2014-Oct-30 18:27 202 13.9
2014-Oct-30 18:16 202 14.4
2014-Oct-30 18:06 180 14.4
2014-Oct-30 17:56 180 15.6
2014-Oct-30 17:46 135 15.6
2014-Oct-30 17:36 16.1
2014-Oct-30 17:27 004 15.6
2014-Oct-30 17:16 043 16.1
2014-Oct-30 17:06 068 16.1
2014-Oct-30 16:56 067 16.1
2014-Oct-30 16:46 024 16.7
2014-Oct-30 16:36 045 16.7
2014-Oct-30 16:26 065 16.7
2014-Oct-30 16:17 270 17.2
2014-Oct-30 16:06 068 17.2
2014-Oct-30 15:56 068 17.8
2014-Oct-30 15:46 034 18.3
2014-Oct-30 15:36 022 18.3
2014-Oct-30 15:26 045 18.3
2014-Oct-30 15:16 084 18.9
2014-Oct-30 15:06 001 18.9
2014-Oct-30 14:56 19.4
2014-Oct-30 14:47 027 1 gusting 2 19.4
2014-Oct-30 14:36 346 19.4
2014-Oct-30 14:26 022 1 gusting 1 19.4
2014-Oct-30 14:16 135 19.4
2014-Oct-30 14:06 045 19.4
2014-Oct-30 13:56 225 19.4
2014-Oct-30 13:47 104 18.9
2014-Oct-30 13:36 180 0 gusting 0 19.4
2014-Oct-30 13:26 022 18.9
2014-Oct-30 13:16 18.9
2014-Oct-30 13:06 090 18.9
2014-Oct-30 12:56 18.9
2014-Oct-30 12:46 058 18.9
2014-Oct-30 12:36 180 18.9
2014-Oct-30 12:26 068 0 gusting 0 18.3
2014-Oct-30 12:17 151 18.3
2014-Oct-30 12:06 358 18.3
2014-Oct-30 11:56 112 17.2
2014-Oct-30 11:47 082 17.2
2014-Oct-30 11:36 090 17.2
2014-Oct-30 11:26 180 16.7
2014-Oct-30 11:17 053 16.7
2014-Oct-30 11:06 045 16.7
2014-Oct-30 10:57 16.1
2014-Oct-30 10:46 045 15.6
2014-Oct-30 10:36 045 14.4
2014-Oct-30 10:27 135 14.4
2014-Oct-30 10:16 032 13.3
2014-Oct-30 10:06 068 13.3
2014-Oct-30 09:57 022 12.8
2014-Oct-30 09:46 12.2
2014-Oct-30 09:36 068 12.2
2014-Oct-30 09:27 045 11.7
2014-Oct-30 09:17 057 11.7
2014-Oct-30 09:06 022 11.1
2014-Oct-30 08:56 068 11.7
2014-Oct-30 08:47 004 11.7
2014-Oct-30 08:37 022 12.2
2014-Oct-30 08:26 112 11.7
2014-Oct-30 08:17 061 11.1
2014-Oct-30 08:06 039 11.1
2014-Oct-30 07:56 022 10.0
2014-Oct-30 07:47 023 9.4
2014-Oct-30 07:37 202 8.3
2014-Oct-30 07:27 090 7.8
2014-Oct-30 07:17 183 7.2
2014-Oct-30 07:07 112 7.2
2014-Oct-30 06:56 158 6.7
2014-Oct-30 06:47 168 6.7
2014-Oct-30 06:37 180 6.7
2014-Oct-30 06:27 180 6.1
2014-Oct-30 06:17 169 6.1
2014-Oct-30 06:07 158 6.1
2014-Oct-30 05:56 135 6.1
2014-Oct-30 05:46 225 6.1
2014-Oct-30 05:36 180 6.1
2014-Oct-30 05:26 180 6.7
2014-Oct-30 05:17 180 6.7
2014-Oct-30 05:07 180 6.7
2014-Oct-30 04:57 202 6.7
2014-Oct-30 04:47 202 6.7
2014-Oct-30 04:36 201 6.7
2014-Oct-30 04:27 180 6.7
2014-Oct-30 04:16 180 6.7
2014-Oct-30 04:07 292 6.7
2014-Oct-30 03:56 158 6.7
2014-Oct-30 03:46 090 6.7
2014-Oct-30 03:37 315 7.2
2014-Oct-30 03:27 180 7.2
2014-Oct-30 03:17 180 7.2
2014-Oct-30 03:07 180 7.2
2014-Oct-30 02:57 180 7.2
2014-Oct-30 02:47 180 7.2
2014-Oct-30 02:37 180 7.2
2014-Oct-30 02:27 180 7.8
2014-Oct-30 02:17 180 7.8
2014-Oct-30 02:07 180 7.8
2014-Oct-30 01:57 180 7.8
2014-Oct-30 01:47 202 7.8
2014-Oct-30 01:37 202 7.8
2014-Oct-30 01:27 202 7.8
2014-Oct-30 01:17 202 8.3
2014-Oct-30 01:07 202 8.3
2014-Oct-30 00:57 201 8.3
2014-Oct-30 00:47 180 12.2
2014-Oct-30 00:37 180 12.2
2014-Oct-30 00:27 180 12.2
2014-Oct-30 00:17 180 12.2
2014-Oct-30 00:07 180 12.2
2014-Oct-29 23:57 180 12.2
2014-Oct-29 23:47 180 12.2
2014-Oct-29 23:37 180 12.2
2014-Oct-29 23:27 180 12.2
2014-Oct-29 23:17 180 12.2
2014-Oct-29 23:07 180 12.2
2014-Oct-29 22:57 180 12.2
2014-Oct-29 22:47 180 12.2
2014-Oct-29 22:37 180 12.2
2014-Oct-29 22:27 180 12.2
2014-Oct-29 22:17 180 12.2
2014-Oct-29 22:07 180 12.2
2014-Oct-29 21:57 180 12.2
2014-Oct-29 21:47 180 12.2
2014-Oct-29 21:37 180 12.2
2014-Oct-29 21:27 180 12.2
2014-Oct-29 21:17 180 12.2
2014-Oct-29 21:07 180 12.2
2014-Oct-29 20:57 180 12.2
2014-Oct-29 20:47 180 12.2
2014-Oct-29 20:37 180 12.2
2014-Oct-29 20:27 180 12.2
2014-Oct-29 20:17 180 12.2
2014-Oct-29 20:07 180 12.2
2014-Oct-29 19:57 180 12.2
2014-Oct-29 19:47 180 12.2
2014-Oct-29 19:37 180 12.2
2014-Oct-29 19:27 180 12.2
2014-Oct-29 19:17 180 12.2
2014-Oct-29 19:07 180 12.2
2014-Oct-29 18:57 180 12.2
2014-Oct-29 18:47 180 12.2
2014-Oct-29 18:37 180 12.8
2014-Oct-29 18:27 158 12.8
2014-Oct-29 18:17 158 12.8
2014-Oct-29 18:07 270 12.8
2014-Oct-29 17:57 180 12.8
2014-Oct-29 17:47 240 13.3
2014-Oct-29 17:37 048 13.3
2014-Oct-29 17:27 180 13.9
2014-Oct-29 17:17 071 13.9
2014-Oct-29 17:07 315 13.9